Home > Weather > Koraput > Past weeks

Flag for India Weather for the Past 2 Weeks in Koraput, Odisha, India

Now
95 °F

Scattered clouds.


Feels Like: 93 °F
Forecast: 72 / 94 °F
Wind: 9 mph from Northwest

Location: Nagpur Sonegaon

Current Time: May 3, 2016 at 9:14:09 AM

Latest Report: May 3, 2016 at 8:30 AM


Visibility: 4 mi

Pressure: 29.83 "Hg (27.09 "Hg at 868m altitude)

Humidity: 26%

Dew Point: 55 °F

Location of KoraputLocation

Historic Weather in Koraput — Graph

°F

Koraput Temperature Yesterday

Maximum temperature yesterday: 109 °F (at 2:00 PM)
Minimum temperature yesterday: 86 °F (at 6:00 AM)
Average temperature yesterday: 95 °F

High & Low Weather Summary for the Past Weeks

 TemperatureHumidityPressure
High113 °F (Apr 21, 3:00 PM)48% (May 3, 3:00 AM)29.89 "Hg (May 3, 3:00 AM)
Low81 °F (Apr 23, 6:30 AM)9% (May 1, 2:00 PM)29.59 "Hg (Apr 23, 4:30 PM)
Average98 °F22%29.74 "Hg
* Reported Apr 18 7:00 AM — May 3 7:00 AM, Koraput, Weather by CustomWeather, © 2016

Note: Actual official high and low records may vary slightly from our data, if they occured in-between our weather recording intervals... More about our weather records

Advertising

Koraput Weather History for the Previous 24 Hours

Scroll right to see more
 ConditionsComfort  
Time TempWeatherWind HumidityBarometerVisibility
7:00 AM
Tue, May 3
86 °FPartly sunny.5 mph40%29.80 "Hg2 mi
6:30 AM84 °FPartly sunny.No wind40%29.77 "Hg2 mi
6:00 AM84 °FPassing clouds.5 mph43%29.77 "Hg2 mi
5:30 AM84 °FPassing clouds.5 mph43%29.74 "Hg2 mi
5:00 AM84 °FPassing clouds.3 mph43%29.74 "Hg2 mi
4:30 AM81 °FPassing clouds.2 mph48%29.74 "Hg2 mi
4:00 AM81 °FPassing clouds.2 mph45%29.74 "Hg2 mi
3:30 AM81 °FHaze.No wind45%29.74 "Hg2 mi
3:00 AM81 °FHaze.2 mph48%29.74 "Hg2 mi
1:30 AM84 °FPassing clouds.3 mph43%29.74 "Hg2 mi
1:00 AM84 °FPassing clouds.3 mph43%29.77 "Hg2 mi
12:30 AM84 °FPassing clouds.3 mph40%29.77 "Hg2 mi
12:00 AM84 °FPassing clouds.3 mph40%29.77 "Hg2 mi
11:00 PM
Mon, May 2
86 °FPassing clouds.3 mph38%29.80 "Hg2 mi
10:30 PM86 °FPassing clouds.6 mph35%29.80 "Hg2 mi
10:00 PM88 °FPassing clouds.No wind33%29.80 "Hg2 mi
9:30 PM88 °FPassing clouds.2 mph33%29.77 "Hg2 mi
9:00 PM91 °FPassing clouds.5 mph32%29.77 "Hg2 mi
8:30 PM91 °FPartly cloudy.3 mph30%29.74 "Hg2 mi
8:00 PM90 °FPartly cloudy.5 mph36%29.74 "Hg2 mi
7:30 PM93 °FPartly cloudy.5 mph30%29.74 "Hg3 mi
7:00 PM99 °FBroken clouds.3 mph21%29.74 "Hg3 mi
6:00 PM95 °FBroken clouds.10 mph25%29.74 "Hg3 mi
5:30 PM93 °FThunderstorms. Broken clouds.12 mph28%29.77 "Hg2 mi
5:00 PM100 °FThunderstorms. Broken clouds.12 mph20%29.68 "Hg2 mi
4:30 PM97 °FBroken clouds.23 mph22%29.68 "Hg3 mi
4:00 PM95 °FLight rain. Broken clouds.29 mph26%29.71 "Hg3 mi
3:30 PM99 °FLight rain. Broken clouds.14 mph19%29.71 "Hg3 mi
3:00 PM108 °FScattered clouds.8 mph14%29.68 "Hg4 mi
2:30 PM109 °FScattered clouds.7 mph13%29.71 "Hg4 mi
2:00 PM109 °FScattered clouds.12 mph15%29.71 "Hg4 mi
1:30 PM108 °FBroken clouds.8 mph13%29.71 "Hg4 mi
12:30 PM108 °FScattered clouds.6 mph14%29.74 "Hg4 mi
12:00 PM108 °FHaze.7 mph14%29.77 "Hg4 mi
11:30 AM108 °FHaze.7 mph14%29.77 "Hg4 mi
10:30 AM104 °FHaze.5 mph15%29.80 "Hg3 mi
10:00 AM102 °FHaze.5 mph17%29.80 "Hg3 mi
9:30 AM100 °FHaze.6 mph18%29.80 "Hg3 mi
9:00 AM99 °FHaze.5 mph19%29.80 "Hg3 mi
Weather by CustomWeather, © 2016

See weather overviewHow to use our weather pages